AO-07 1 07530U 74089B 16021.43533369 -.00000033 00000-0 68315-4 0 9993 2 07530 101.5541 355.9139 0011692 238.0508 242.2202 12.53619214884608 FO-29 1 24278U 96046B 16020.83538999 -.00000025 00000-0 12425-4 0 9997 2 24278 98.5743 325.5218 0349600 226.6742 130.4765 13.53063000959457 SO-33 1 25509U 98061B 16021.16112941 .00000529 00000-0 90011-4 0 9991 2 25509 31.4329 95.4336 0347354 184.7152 175.0151 14.30123048900644 RS-22 1 27939U 03042A 16021.66888820 .00000358 00000-0 73078-4 0 9990 2 27939 97.8632 179.2195 0014165 55.7635 304.4908 14.66294440658208 HO-68 1 36122U 09072B 16021.68369700 -.00000059 00000-0 -43517-4 0 9991 2 36122 100.1662 63.3942 0007141 340.1370 19.9473 13.16332034293205 AO-73 1 39444U 13066AE 16021.39518473 .00001142 00000-0 15031-3 0 9991 2 39444 97.7028 80.8813 0060169 142.8402 217.6999 14.80802931115703 EO-79 1 40025U 14033R 16021.78093762 .00001184 00000-0 13589-3 0 9997 2 40025 97.9391 287.2108 0012489 181.7747 178.3427 14.87728028 86281 XW-2A 1 40903U 15049E 16021.87210799 .00005816 00000-0 17383-3 0 9993 2 40903 97.4521 35.3401 0015097 307.8474 172.8665 15.34876299 18948 XW-2C 1 40906U 15049H 16021.87150644 .00002111 00000-0 12329-3 0 9998 2 40906 97.4549 32.1831 0015447 180.4182 298.6227 15.12904534 18720 LILACSAT-2 1 40908U 15049K 16021.85133027 .00001152 00000-0 70424-4 0 9999 2 40908 97.4615 32.1454 0016126 173.7646 270.3959 15.12117586 18713 XW-2E 1 40909U 15049L 16021.83785045 .00003838 00000-0 21733-3 0 9992 2 40909 97.4549 32.2274 0014788 183.4206 300.0344 15.13523704 18727 UO-11 1 14781U 84021B 16021.24055249 .00000383 00000-0 53876-4 0 9994 2 14781 97.7720 77.6071 0009997 80.9260 279.3085 14.82647784714335 AO-16 1 20439U 90005D 16021.13669209 .00000065 00000-0 40083-4 0 9998 2 20439 98.5620 319.3432 0009849 233.8025 251.7551 14.32604151357949 LO-19 1 20442U 90005G 16021.78755101 .00000061 00000-0 38251-4 0 9990 2 20442 98.5324 318.8751 0010975 217.9885 142.0526 14.32792395358247 AO-27 1 22825U 93061C 16021.37324180 .00000044 00000-0 34565-4 0 9991 2 22825 98.7397 336.8699 0009083 36.1644 324.0151 14.29932910164111 IO-26 1 22826U 93061D 16020.82145933 .00000064 00000-0 42054-4 0 9992 2 22826 98.7339 336.4573 0009511 29.3103 330.8611 14.30254901164198 GO-32 1 25397U 98043D 16020.83950990 .00000014 00000-0 24892-4 0 9996 2 25397 98.5499 329.7721 0002320 69.3230 290.8197 14.23579505910752 NO-44 1 26931U 01043C 16021.31389676 .00000023 00000-0 40631-4 0 9995 2 26931 67.0526 334.4010 0007463 274.1987 85.8261 14.30379377746991 SO-50 1 27607U 02058C 16021.77840321 .00000965 00000-0 13547-3 0 9992 2 27607 64.5558 251.1981 0079690 246.6228 112.6981 14.75026466703521 CO-55 1 27844U 03031E 16020.90900265 .00000180 00000-0 10147-3 0 9997 2 27844 098.6944 031.3179 0010296 036.9463 323.2422 14.21903651651338 CO-57 1 27848U 03031J 16021.82842967 .00000139 00000-0 83548-4 0 9997 2 27848 98.7041 32.2434 0010300 41.9879 318.2086 14.21536544651409 AO-51 1 28375U 04025K 16021.79036551 .00000137 00000-0 53480-4 0 9997 2 28375 98.3161 321.2063 0083340 30.2077 330.3879 14.41743346607989 CP3 1 31129U 07012N 16021.45399709 .00000794 00000-0 17930-3 0 9995 2 31129 98.0118 343.1467 0096161 354.5159 5.4978 14.56135537464870 CO-65 1 32785U 08021C 16021.78123193 .00000913 00000-0 10665-3 0 9994 2 32785 97.6219 61.9985 0014668 67.4792 292.7976 14.87345473418718 PRISM 1 33493U 09002B 16021.79487125 .00001781 00000-0 17109-3 0 9994 2 33493 98.2322 234.8262 0015803 336.2133 23.8376 14.94382160379214 SOHLA-1 1 33496U 09002E 16020.99170725 .00000308 00000-0 57858-4 0 9993 2 33496 98.2383 156.1381 0006229 181.3146 297.0781 14.71519471375209 TISAT-1 1 36799U 10035E 16021.74510307 .00001765 00000-0 19171-3 0 9991 2 36799 98.0218 129.8984 0012314 204.8533 155.2092 14.89386899299471 STUDSAT 1 36801U 10035G 16021.83460690 .00039361 00000-0 18313-2 0 9993 2 36801 98.0798 159.9201 0005423 116.4135 243.8166 15.19952429301093 ALMASAT-1 1 38078U 12006B 16021.71623305 .00045360 38292-5 66249-3 0 9999 2 38078 69.4524 43.9988 0424720 311.7063 44.8503 14.93107438207495 CUBEBUG-1 1 39153U 13018D 16021.67696918 .00000882 00000-0 12445-3 0 9993 2 39153 98.0055 110.3477 0015830 266.4931 93.4470 14.79676809147782 ESTCUBE-1 1 39161U 13021C 16021.63777943 .00000527 00000-0 92883-4 0 9991 2 39161 98.0585 107.5505 0009414 347.0256 13.0707 14.71505848145365 DUCHIFAT-1 1 40021U 14033M 16021.79173544 .00001720 00000-0 18914-3 0 9994 2 40021 97.9415 287.9625 0013034 181.2988 178.8197 14.88895673 86320 NANOSATCBR1 1 40024U 14033Q 16021.78370956 .00001477 00000-0 16547-3 0 9991 2 40024 97.9394 287.5284 0012297 180.5110 179.6095 14.88361965 86301 DTUSAT-2 1 40030U 14033W 16021.25516821 .00001193 00000-0 13809-3 0 9996 2 40030 97.9374 286.2578 0012031 176.6772 183.4525 14.87364956 86183 ANTELSAT 1 40034U 14033AA 16021.64893181 .00000682 00000-0 11066-3 0 9995 2 40034 97.9220 273.6286 0060088 138.3349 222.2483 14.73176311 85458 MET-2/21 1 22782U 93055A 16021.22839527 -.00000011 00000-0 -23611-4 0 9992 2 22782 82.5474 70.6578 0023646 71.0519 351.5774 13.83782448130756 OKEAN-4 1 23317U 94066A 16021.14793362 .00000680 00000-0 72983-4 0 9993 2 23317 82.5363 240.6391 0019366 331.1134 149.1828 14.87016949149681 NOAA-14 1 23455U 94089A 16021.49788672 .00000002 00000-0 23913-4 0 9994 2 23455 98.7353 103.2893 0009632 172.2093 309.2843 14.14066221 86387 NOAA-15 1 25338U 98030A 16021.49394844 .00000102 00000-0 61998-4 0 9996 2 25338 98.7807 25.3674 0009618 253.5830 106.4292 14.25696488919948 RESURS 1 25394U 98043A 16020.89160251 -.00000017 00000-0 11119-4 0 9994 2 25394 98.4965 333.4496 0001836 37.7160 27.1801 14.24467419911271 FENGYUN1 1 25730U 99025A 16020.89087824 .00001830 00000-0 98754-3 0 9995 2 25730 98.9640 350.9520 0018480 240.8649 172.2640 14.13886174859819 OKEAN-0 1 25860U 99039A 16021.03927021 .00000409 00000-0 66599-4 0 9997 2 25860 98.1249 354.8450 0001358 65.0184 343.1997 14.76263625888121 NOAA-16 1 26536U 00055A 16021.52873618 .00000017 00000-0 33177-4 0 9995 2 26536 98.9163 92.0069 0010016 339.6751 20.4021 14.13132490790494 NOAA-17 1 27453U 02032A 16021.46443460 .00000063 00000-0 44818-4 0 9997 2 27453 98.3652 1.9227 0010535 262.2721 97.7263 14.24919916705746 NOAA-18 1 28654U 05018A 16021.48894808 .00000067 00000-0 61619-4 0 9998 2 28654 99.1955 24.5927 0015161 70.3044 289.9761 14.12262535549883 NOAA-19 1 33591U 09005A 16021.49057067 .00000119 00000-0 89604-4 0 9995 2 33591 99.0206 337.2131 0013034 276.0632 83.9053 14.12030575358299 HUBBLE 1 20580U 90037B 16021.19961807 .00001539 00000-0 86024-4 0 9997 2 20580 28.4693 155.8130 0003069 60.3268 312.3803 15.08081092212745 ISS 1 25544U 98067A 16021.72262839 .00013777 00000-0 20392-3 0 9993 2 25544 51.6415 73.4408 0006509 42.0459 318.1555 15.54607323982041 CO-58 1 28895U 05043F 16020.90104709 .00000582 00000-0 12192-3 0 9996 2 28895 097.8220 202.3766 0016323 331.9859 028.0464 14.63064996545197 FALCON 1 30776U 07006E 16021.44489183 .00009716 00000-0 35231-3 0 9997 2 30776 35.4309 69.7870 0000399 239.8440 120.2245 15.27637261489666 MAST 1 31126U 07012K 16021.84229675 .00000506 00000-0 11848-3 0 9992 2 31126 97.9924 345.3354 0090173 334.8426 24.8393 14.56275594465307 CAPE1 1 31130U 07012P 16020.87932893 .00000724 00000-0 16562-3 0 9992 2 31130 98.0136 342.0011 0096972 358.5996 1.4916 14.55787500464553 COMPASS 1 32787U 08021E 16021.16040786 .00001814 00000-0 18587-3 0 9996 2 32787 97.6235 66.8999 0013995 53.1419 307.1081 14.91592337418993 AAUSAT2 1 32788U 08021F 16021.59826432 .00002557 00000-0 25253-3 0 9997 2 32788 97.6245 69.2226 0013232 48.2716 311.9633 14.92744132419174 DO-64 1 32789U 08021G 16021.10632230 .00006786 00000-0 52022-3 0 9998 2 32789 97.6291 82.8804 0013267 46.8356 313.3975 15.02078465419762 CO-66 1 32791U 08021J 16021.74603679 .00001359 00000-0 14827-3 0 9998 2 32791 97.6234 64.6285 0014920 59.0648 301.2035 14.89447186418845 RS-30 1 32953U 08025A 16021.67368909 .00000010 00000-0 -13620-7 0 9996 2 32953 82.5009 198.3694 0018665 325.0269 34.9581 12.43066371347750 METEOR-M 1 35865U 09049A 16021.77548348 -.00000012 00000-0 13543-4 0 9999 2 35865 98.4747 58.9740 0002366 174.1188 316.0209 14.22055580329274 RS-38 1 35869U 09049E 16021.67231841 .00000001 00000-0 19268-4 0 9996 2 35869 98.4662 58.3961 0004057 187.0477 173.0631 14.22326132329315 JUGNU 1 37839U 11058B 16021.16456631 .00000367 00000-0 53891-4 0 9993 2 37839 19.9625 321.0231 0018795 288.5828 199.7959 14.12517202221073 SRMSAT 1 37841U 11058D 16020.28533362 .00000335 00000-0 39252-4 0 9995 2 37841 19.9734 357.4852 0011829 195.6389 298.3518 14.10520288220634 RAX-2 1 37853U 11061D 16021.86135952 .00003805 00000-0 22879-3 0 9991 2 37853 101.7141 345.7627 0187842 156.8146 204.1677 14.98494408229829 AUBIESAT 1 37854U 11061E 16021.84657486 .00004858 00000-0 28158-3 0 9996 2 37854 101.7028 350.2365 0177352 148.1077 213.1017 15.00782603229982 HRBE 1 37855U 11061F 16020.89147306 .00003334 00000-0 19119-3 0 9991 2 37855 101.7175 346.9915 0192309 154.0634 207.0368 14.99682611229282 HORYU-2 1 38340U 12025D 16020.87302950 .00000899 00000-0 14222-3 0 9991 2 38340 98.3403 1.8144 0012838 120.7043 239.5431 14.74792582197614 RS-40 1 38735U 12041C 16021.71704570 .00000040 00000-0 21992-3 0 9995 2 38735 82.4779 283.7158 0017982 63.9607 296.3320 12.42570609158057 PROITERES 1 38756U 12047B 16021.83444840 .00000390 00000-0 64406-4 0 9994 2 38756 98.2274 129.9645 0011395 324.4921 35.5527 14.76073506181256 BEESAT-3 1 39134U 13015E 16020.63014894 .00005675 00000-0 31479-3 0 9994 2 39134 64.8726 80.5874 0015371 234.1153 125.8546 15.14644392151606 BEESAT-2 1 39136U 13015G 16021.41173981 .00005204 00000-0 30663-3 0 9998 2 39136 64.8735 82.4727 0014828 231.5137 128.4657 15.12584544151641 ZACUBE-1 1 39417U 13066B 16021.10999911 .00001037 00000-0 13897-3 0 9991 2 39417 97.7020 80.1617 0060813 145.1702 215.3514 14.80179782116862 TRITON-1 1 39427U 13066M 16021.15845294 .00000807 00000-0 13850-3 0 9994 2 39427 97.6869 63.7753 0114962 190.1270 169.7619 14.67015599115818 DELFIN3XT 1 39428U 13066N 16021.05969457 .00001425 00000-0 24069-3 0 9993 2 39428 97.6892 61.6584 0122878 196.6652 163.0499 14.66002776115651 GOMX-1 1 39430U 13066Q 16021.82498528 .00000572 00000-0 11447-3 0 9995 2 39430 97.6843 53.8903 0151960 220.1943 138.7928 14.58419765115240 LO-74 1 39440U 13066AA 16021.74637114 .00000860 00000-0 12853-3 0 9995 2 39440 97.6954 74.2399 0082040 160.1953 200.2474 14.74959782116547 PUCPSAT-1 1 39442U 13066AC 16020.82279218 .00001428 00000-0 15472-3 0 9993 2 39442 97.7151 90.6628 0033864 122.7748 237.6740 14.89335705116259 SPROUT 1 39770U 14029E 16021.07223772 .00001823 00000-0 22115-3 0 9990 2 39770 97.8710 120.0675 0009162 201.9183 158.1645 14.84779321 89950 POPSAT-HIP1 1 40028U 14033U 16021.83778238 .00000992 00000-0 11511-3 0 9993 2 40028 97.9418 287.3970 0013611 180.0318 180.0927 14.87610583 86287 EO-80 1 40032U 14033Y 16021.67819382 .00001200 00000-0 13911-3 0 9995 2 40032 97.9381 286.6914 0012025 175.6187 184.5137 14.87296372 86247 VELOX-1 1 40057U 14034E 16021.81166890 .00000988 00000-0 14975-3 0 9991 2 40057 98.2021 108.4045 0010038 258.5927 101.4161 14.76418973 84132 DAURIA DX 1 1 40071U 14037C 16021.69404607 .00000441 00000-0 64798-4 0 9990 2 40071 98.3390 106.9045 0007370 258.1909 101.8479 14.80678600 83126 UKUBE-1 1 40074U 14037F 16021.78096998 .00001003 00000-0 13121-3 0 9991 2 40074 98.3418 108.5332 0003505 263.3913 96.6897 14.82783297 83223 HODOYOSHI-1 1 40299U 14070B 16021.84438363 .00002341 00000-0 10951-3 0 9994 2 40299 97.4410 105.6487 0015524 87.6513 50.8488 15.20650834 67032 CHUBUSAT-1 1 40300U 14070C 16021.84139281 .00002621 00000-0 12735-3 0 9997 2 40300 97.4379 104.2890 0023357 92.6904 40.9209 15.19089590 66959 QSAT-EOS 1 40301U 14070D 16021.82358654 .00005191 00000-0 24328-3 0 9999 2 40301 97.4324 103.4901 0031695 93.1522 46.5134 15.19682640 66910 TSUBAME 1 40302U 14070E 16021.82184767 .00003268 00000-0 17700-3 0 9991 2 40302 97.4291 100.7858 0043192 101.2341 37.8528 15.14507186 66747 FIREBIRD FU3 1 40377U 15003B 16021.79532736 .00008586 00000-0 40371-3 0 9997 2 40377 99.0911 100.9022 0148434 255.8094 102.6602 15.10607813 53516 FIREBIRD FU4 1 40378U 15003C 16021.79253954 .00008448 00000-0 39689-3 0 9997 2 40378 99.0911 100.9079 0148721 255.7694 102.6973 15.10608694 53512 GRIFEX 1 40379U 15003D 16021.77337991 .00007434 00000-0 36068-3 0 9992 2 40379 99.0918 100.4452 0151591 258.3009 100.1172 15.09284384 53482 LAMBDA-SAT 1 40458U 98067GB 15136.30676273 .20783109 12527-4 14817-2 0 9995 2 40458 051.6075 233.7697 0010355 318.5347 043.1720 16.39926603 21161 NO-84 1 40654U 15025X 16021.52967394 .00017542 00000-0 39378-3 0 00114 2 40654 054.9989 348.5496 0227451 066.6960 295.7885 15.20764282001538 NO-83 1 40655U 15025X 16021.43756829 .00024801 00000-0 53269-3 0 00115 2 40655 054.9887 346.6799 0215321 067.5279 294.8433 15.23674300001529 DEORBITSAIL 1 40719U 15032E 16020.76421571 .00001524 00000-0 23275-3 0 9998 2 40719 98.0343 273.5753 0017016 358.1471 1.9672 14.75176095 28602 NUDT-PHONESAT 1 40900U 15049B 16021.87129955 .00006021 00000-0 32422-3 0 9993 2 40900 97.4471 32.3655 0014581 202.2712 277.2614 15.15102275 18755 XW-2D 1 40907U 15049J 16021.80942403 .00002402 00000-0 13982-3 0 9993 2 40907 97.4515 32.0598 0014990 178.5393 305.8205 15.12893047 18719 XW-2F 1 40910U 15049M 16021.80922610 .00003394 00000-0 19502-3 0 9990 2 40910 97.4550 32.1128 0016165 178.0385 306.4441 15.13061528 18603 XW-2B 1 40911U 15049N 16021.87331112 .00002291 00000-0 13351-3 0 9990 2 40911 97.4561 32.2046 0014883 178.5325 300.9359 15.12896282 18621 DCBB 1 40912U 15049P 16021.86200556 .00003630 00000-0 19793-3 0 9991 2 40912 97.4550 32.5065 0016469 175.5948 307.0382 15.14896607 18643 TW-1C 1 40926U 15051B 16021.86731803 .00011697 00000-0 36820-3 0 9995 2 40926 97.2957 60.5731 0014734 212.6130 267.4622 15.32981341 18160 TW-1A 1 40928U 15051D 16021.83856961 .00006087 00000-0 20149-3 0 9991 2 40928 97.2899 60.3481 0013264 229.1318 216.0460 15.31603901 18156 IO-86 1 40931U 15052B 16021.41298331 .00000778 00000-0 19483-4 0 9992 2 40931 5.9969 288.6585 0013157 191.2134 168.8263 14.76410259 17053 AAUSat-5 1 40948U 98067GZ 16021.58173389 .00162239 00000-0 10961-2 0 9991 2 40948 51.6368 67.2160 0009322 26.3243 333.8228 15.73987748 16896 GomX-3 1 40949U 98067HA 16021.59816903 .00035181 00000-0 35683-3 0 9993 2 40949 51.6406 69.6102 0007418 28.7334 331.4069 15.64851355 16861 LQSat 1 40958U 15057A 16021.81989303 .00000196 00000-0 38575-4 0 9993 2 40958 98.0303 98.5601 0016954 265.7720 94.1537 14.72793650 15698 AO-85 1 40967U 15058D 16021.37249725 .00001244 00000-0 14548-3 0 00126 2 40967 064.7789 333.9910 0215983 250.5967 107.1698 14.74681006001470 ATHENOXAT-1 1 41168U 15077C 16021.17559028 .00005037 00000-0 27010-3 0 9995 2 41168 14.9924 310.5374 0013099 116.4380 103.1723 15.08787830 5356 /EX
